Flag for Afghanistan Weather past 2 weeks in Herat, Afghanistan

Now
95 °F

Broken clouds.


Feels Like: 90 °F
Forecast: 69 / 93 °F
Wind: 8 mph from Southwest

Location: Herat Airport

Current Time: May 3, 2015 at 3:43:31 PM

Latest Report: May 3, 2015 at 3:25 PM


Visibility: 5 mi

Pressure: 29.86 "Hg

Humidity: 6%

Dew point: 19 °F

Location of HeratLocation

Historic Weather in Herat — Graph

°F

Herat temperature yesterday

Maximum temperature yesterday: 93 °F (at 1:25 PM)
Minimum temperature yesterday: 55 °F (at 5:50 AM)
Average temperature yesterday: 81 °F

Past Weeks' High & Low Weather Summary

 TemperatureHumidityPressure
High97 °F (Apr 25, 1:25 PM)94% (Apr 19, 6:25 AM)30.24 "Hg (Apr 19, 6:25 AM)
Low50 °F (Apr 20, 6:24 AM)6% (May 3, 1:25 PM)29.77 "Hg (Apr 25, 5:24 PM)
Average73 °F32%30.04 "Hg
* Reported Apr 18 2:25 PM — May 3 2:25 PM, Herat, Weather by CustomWeather, © 2015

Note: Actual official high and low records may vary slightly from our data, if they occured in-between our weather recording intervals... More about our weather records

Advertising

Herat weather history for previous 24 hours

 ConditionsComfort  
Time TempWeatherWind HumidityBarometerVisibility
2:25 PM
Sun, May 3
97 °FPassing clouds.14 mph6%29.89 "Hg5 mi
1:25 PM97 °FPassing clouds.15 mph6%29.89 "Hg5 mi
12:24 PM95 °FSunny.9 mph11%29.92 "Hg10 mi
11:25 AM91 °FSunny.7 mph17%29.95 "Hg10 mi
10:25 AM90 °FSunny.7 mph14%29.95 "Hg10 mi
9:24 AM86 °FSunny.2 mph18%29.98 "Hg10 mi
8:25 AM77 °FSunny.2 mph22%29.98 "Hg10 mi
7:24 AM68 °FSunny.5 mph35%29.98 "Hg10 mi
6:24 AM64 °FSunny.2 mph43%29.98 "Hg10 mi
9:25 PM
Sat, May 2
79 °FClear.7 mph15%29.98 "Hg10 mi
8:25 PM79 °FClear.9 mph15%29.95 "Hg10 mi
7:25 PM82 °FSunny.6 mph14%29.95 "Hg10 mi
6:25 PM88 °FSunny.5 mph12%29.95 "Hg10 mi
5:25 PM91 °FSunny.6 mph14%29.95 "Hg10 mi
4:25 PM93 °FPassing clouds.5 mph10%29.98 "HgN/A
3:25 PM93 °FPassing clouds.8 mph11%29.98 "HgN/A
Weather by CustomWeather, © 2015

See weather overviewHow to use our weather pages